SINAH 1

Satellite information

Favourite Embed

Satellite Type and Status

PAYLOADIN ORBIT

Key statistics

Satellite SINAH 1 at a glance.

Uptime

7352

Days in orbit

Revolutions

≈ 14.6

Per day

Orbit

SSO

Sun Synchronous Orbit

Inclination

98.3

Latest

Satellite identification and parameters

Extended collection of information and parameters for SINAH 1.

Object identification

Identified? True

Debris? False

Object name: SINAH 1

International designator: 2005-043D

Object number (NORAD): 28893

Object ID (CCSDS): 28893

Country: IRAN (IRAN)

Current information (Y/N): Y

RCS size: MEDIUM

Orbital parameters

Period: 98.363 minutes

Inclination: 98.2602 deg

SMA: 7058.547 km

Apoapsis: 691.22 km

Periapsis: 669.604 km

RAAN: 114.828 deg

Eccentricy: 0.00153119

Argument of periapsis: 138.3711 deg

Mean anomaly: 221.866 deg

Mean motion: 14.63961879 rev/day

Mean motion (dot): 0.00000801 rev/day2

B* drag term: 0.00016217286 1/REarth

Two-line elements (TLE)

Creation date: Dec. 12, 2025, 10:14 a.m.

Reference frame: TEME

Reference center: EARTH

Epoch: Dec. 12, 2025, 6:31 a.m. UTC

TLE line 0: 0 SINAH 1

TLE line 1: 1 28893U 05043D 25346.27210520 .00000801 00000-0 16217-3 0 9990

TLE line 2: 2 28893 98.2602 114.8280 0015312 138.3711 221.8660 14.63961879 73176

Live tracking on map

Real-time ground track for satellite SINAH 1.

In-orbit conjunctions

A list of the most updated potential collisions computed for object SINAH 1.

Target Orbit TCA Probability of collision Miss distance Type
FENGYUN 1C DEB SSO 2025-11-13 18:58:03 0.0001596989 274.0 (m) DEBRIS
FENGYUN 1C DEB SSO 2025-10-04 06:04:53 0.0003485933 481.0 (m) DEBRIS
COSMOS 2251 DEB LEO 2025-01-21 18:10:18 0.0001650263 823.0 (m) DEBRIS
AUREOLE 2 LEO 2024-11-18 01:31:39 0.0001416007 279.0 (m) PAYLOAD
CZ-2C DEB SSO 2024-11-14 12:32:12 0.0005501928 507.0 (m) DEBRIS

Associated space launch

Civilian surveillance satellite.

SINAH 1 was lifted into orbit during the mission ‘Kosmos-3M | Beijing-1’, on board a Kosmos-3M space rocket.

The launch took place on Oct. 27, 2005, 6:52 a.m. from 132/1 (132L).

For more information about the launch, click the button.

Launch to space Kosmos-3M | Beijing-1
Kosmos-3M | Beijing-1

Agency: N/A

Status: Launch Successful

Launch date: Oct. 27, 2005, 6:52 a.m. UTC

Rocket: Kosmos-3M

Launch pad: 132/1 (132L)

Location: Plesetsk Cosmodrome, Russian Federation

...

Latest news about this satellite

There are no fresh news available about this satellite. Check back as we update our databases every day.


Newsletter sign-up

Weekly statistics, charts and insights to help you stay on top of the space industry.